OpenBCM V2.0.3 (Linux)

Packet Radio Mailbox

IZ3LSV

[San Dona' di P. JN]

 Login: GUEST





  
I0OJJ  > AMSAT    22.05.26 03:00l 328 Lines 15651 Bytes #999 (0) @ WW
BID : 1IE_IR0EQ
Read: GUEST
Subj: 2Line Orbital Elements
Path: IZ3LSV<IK6IHL<IK7NXU<HB9ON<DK0WUE<PD0LPM<PI8ZTM<ZL2BAU<EA2RCF<IR0EQ
Sent: 260522/0025z @:IR0EQ.ITA.EU [Rome] $:1IE_IR0EQ

>From i0ojj@rgate.ampr.org Fri May 22 02:25:24 2026
Received: from rgate.ampr.org by rgate.ampr.org (JNOS2.0q.1) with SMTP
	id AA1958 ; Fri, 22 May 2026 02:25:24 +0200
Received: by rgate.ampr.org with SMTP
	id AA1955 ; Fri, 22 May 2026 02:25:11 +0200
Message-Id: <1956@rgate.ampr.org>
>From: i0ojj@rgate.ampr.org

SB KEPS @ AMSAT  $ORB26142.1
2Line Orbital Elements 26142.AMSAT

QST de W1STR

AMSAT Orbital Elements for Amateur Satellites in TLE Format
>From Orbital Analysis Office
New England Sci-Tech STEM Education Center
Natick MA May 22, 2026
To all radio amateurs


These element sets describe the orbits of various satellites 
in use by the amateur radio community. For details see:
www.amsat.org/keplerian-elements-formats/

A daily update of element sets is available at:
www.amsat.org/tle/daily-bulletin.txt
or without bulletin text:
www.amsat.org/tle/dailytle.txt


AO-07
1 07530U 74089B   26141.89152713 -.00000052  00000-0 -34210-4 0  9996
2 07530 101.9910 154.8634 0012275 179.5275 251.0103 12.53697583357222
UO-11
1 14781U 84021B   26141.84250610  .00000862  00000-0  93497-4 0  9998
2 14781  97.8043 107.7160 0006032 272.5141  87.5386 14.90711392253205
AO-27
1 22825U 93061C   26141.70841809  .00000058  00000-0  38881-4 0  9994
2 22825  98.6889 209.1299 0008588 170.4927 189.6419 14.30934102703218
FO-29
1 24278U 96046B   26141.54630569  .00000000  00000-0  34558-4 0  9999
2 24278  98.5266 354.0642 0350132 165.4220 195.7337 13.53272944469564
GO-32
1 25397U 98043D   26141.86370265  .00000023  00000-0  30169-4 0  9999
2 25397  99.0063 133.9598 0000518 348.9287  11.1880 14.24422513447583
ISS
1 25544U 98067A   26141.81013264  .00006598  00000-0  12646-3 0  9999
2 25544  51.6330  70.6788 0007525  83.9033 276.2813 15.49301514567663
NO-44
1 26931U 01043C   26141.75766036  .00000073  00000-0  58109-4 0  9990
2 26931  67.0507 312.6302 0006208 263.6699  96.3696 14.31944512286663
SO-50
1 27607U 02058C   26141.45153604  .00000579  00000-0  86191-4 0  9999
2 27607  64.5520 211.7006 0075614 267.3643  91.8806 14.82983376260491
CO-55
1 27844U 03031E   26141.48326484  .00000173  00000-0  93673-4 0  9998
2 27844  98.6743 150.3782 0008295 262.0752  97.9485 14.24317125187871
RS-22
1 27939U 03042A   26141.87761664  .00000548  00000-0  92749-4 0  9990
2 27939  98.3469 325.4944 0011251 359.2209 137.0326 14.73413921211676
CO-65
1 32785U 08021C   26141.86265625  .00003248  00000-0  20851-3 0  9996
2 32785  97.8271 122.7423 0010717 113.7944 246.4409 15.09165957981226
CO-66
1 32791U 08021J   26141.88297742  .00013533  00000-0  44391-3 0  9993
2 32791  97.7528 138.5465 0004568  66.6536 293.5185 15.31736775983265
RS-30
1 32953U 08025A   26141.78213934 -.00000018  00000-0 -20207-3 0  9993
2 32953  82.5057  11.8666 0019992  11.9172 348.2377 12.43178180816419
SRMSAT
1 37841U 11058D   26141.58428440  .00000353  00000-0  47856-4 0  9992
2 37841  19.9710 220.4956 0011598 271.8763 219.5780 14.11569257754052
ZACUBE-1
1 39417U 13066B   26141.87673122  .00003291  00000-0  25856-3 0  9994
2 39417  97.8118 104.0711 0040705 341.0100  18.9603 15.00961986676785
Delfi-N3xt
1 39428U 13066N   26141.73888310  .00004497  00000-0  39801-3 0  9992
2 39428  97.8348  62.0799 0073127 295.6932  63.6749 14.94757646670670
GOMX-1
1 39430U 13066Q   26141.83256690  .00001545  00000-0  23766-3 0  9990
2 39430  97.6495 343.9577 0129155 161.5031 199.0936 14.69341216666045
LO-74
1 39440U 13066AA  26141.80253712  .00002832  00000-0  26539-3 0  9991
2 39440  97.8896  90.6771 0059474 114.1782 246.5670 14.93527149673058
AO-73
1 39444U 13066AE  26141.86919839  .00005987  00000-0  37656-3 0  9996
2 39444  97.8267 112.7754 0034817 294.6838  65.0766 15.09108611675690
DTUSAT-2
1 40030U 14033W   26140.95697010  .00004456  00000-0  24518-3 0  9990
2 40030  98.0869 136.9651 0007072 341.0623  19.0343 15.14617068648563
LILACSAT-2
1 40908U 15049K   26141.81995208  .00013073  00000-0  23086-3 0  9992
2 40908  97.4676 177.6742 0006586   7.0571 353.0772 15.50476276591668
Horyu-4
1 41340U 16012D   26141.39941902  .00152227  00000-0  75460-3 0  9997
2 41340  30.9883 273.2630 0004037  95.4050 264.7068 15.80437185566557
Lapan A3
1 41603U 16040E   26141.88598591  .00002428  00000-0  78581-4 0  9991
2 41603  97.1490 138.9011 0012205 107.0499 253.2082 15.32918160550782
CAS-2T
1 41847U 16066G   26141.78179894  .00000702  00000-0  10806-3 0  9997
2 41847  98.3826 217.8178 0341518 209.5069 148.6462 14.44603131500989
TechnoSat
1 42829U 17042E   26141.38610641  .00002891  00000-0  20850-3 0  9990
2 42829  97.4262 300.0717 0017801 181.5124 178.6051 15.04771569482674
AO-91
1 43017U 17073E   26141.54623661  .00006694  00000-0  29382-3 0  9992
2 43017  97.4738   9.3125 0153649  60.9980 300.6551 15.12173908461362
S-Net D
1 43186U 18014G   26141.67333441  .00003457  00000-0  18134-3 0  9990
2 43186  97.5379  46.6323 0010015 106.7482 253.4851 15.16385485454741
S-Net B
1 43187U 18014H   26141.61828139  .00003519  00000-0  18463-3 0  9992
2 43187  97.5386  46.5632 0010719 103.2638 256.9791 15.16355227454739
S-Net A
1 43188U 18014J   26141.73833551  .00003474  00000-0  18216-3 0  9996
2 43188  97.5396  46.8859 0010611 103.6735 256.5680 15.16393215454752
S-Net C
1 43189U 18014K   26141.68800722  .00003442  00000-0  18066-3 0  9993
2 43189  97.5413  46.9069 0012057  97.7770 262.4832 15.16346650453299
Ten-Koh
1 43677U 18084G   26141.49153061  .00001539  00000-0  11988-3 0  9999
2 43677  98.0751 332.7324 0009135 203.4589 156.6219 15.02795007412151
PO-101
1 43678U 18084H   26141.82700002  .00002360  00000-0  19327-3 0  9998
2 43678  98.1118 336.9011 0011627 261.1148  98.8758 15.00309933412264
QO-100
1 43700U 18090A   26141.73891693  .00000136  00000-0  00000+0 0  9991
2 43700   0.0119 347.9404 0001349 100.4780  82.7575  1.00271059 27418
MinXSS-2
1 43758U 18099A   26141.74775839  .00023125  00000-0  49168-3 0  9992
2 43758  97.4540 217.2957 0006547  11.5602 348.5796 15.44974995410046
AO-95
1 43770U 18099N   26141.59313666  .00007731  00000-0  30248-3 0  9999
2 43770  97.4396 201.9481 0010395  85.8622 274.3805 15.26058773409168
SNUSat 2
1 43782U 18099AA  26141.56836654  .00005832  00000-0  26281-3 0  9998
2 43782  97.4073 195.3675 0010967  38.4282 321.7733 15.21375889408986
SnugLite
1 43784U 18099AC  26141.60157704  .00007547  00000-0  29165-3 0  9996
2 43784  97.3882 196.1536 0003612  53.2641 306.8929 15.26520754409264
ITASat 1
1 43786U 18099AE  26141.73538553  .00004558  00000-0  22259-3 0  9993
2 43786  97.4045 193.7797 0014358  86.9902 273.2975 15.18667175408898
EAGLET 1
1 43790U 18099AJ  26141.13245321  .00002627  00000-0  15344-3 0  9992
2 43790  97.4247 191.5196 0012850  81.8339 278.4349 15.12703873408240
ESEO
1 43792U 18099AL  26141.10572414  .00001059  00000-0  80377-4 0  9994
2 43792  97.4000 179.6526 0013701  69.9510 290.3190 15.04156075407734
JO-97
1 43803U 18099AX  26141.72848380  .00011251  00000-0  35840-3 0  9992
2 43803  97.4140 204.4876 0005467  22.6895 337.4587 15.32706710409574
Suomi 100
1 43804U 18099AY  26141.81647368  .00008719  00000-0  32407-3 0  9997
2 43804  97.4200 202.3189 0010122  23.9931 336.1778 15.27729140409399
ISAT
1 43879U 18111D   26141.78319963  .00057382  00000-0  69351-3 0  9995
2 43879  97.5897  75.0721 0007053  65.3868 294.8123 15.60515348407043
UWE-4
1 43880U 18111E   26141.72946507  .00021785  00000-0  47342-3 0  9995
2 43880  97.5858  68.9379 0010233  68.3750 291.8587 15.44310525406692
Sparrow
1 43881U 18111F   26141.81929056  .00086100  00000-0  79727-3 0  9990
2 43881  97.6126  80.3102 0007210  94.7597 265.4487 15.67209694407233
Prox-1
1 44339U 19036A   26141.54213877  .00009146  00000-0  89870-3 0  9998
2 44339  23.9960 292.1475 0006798  81.8956 278.2314 14.89902593369499
Taurus 1
1 44530U 19059C   26141.86741959  .00003500  00000-0  56900-3 0  9994
2 44530  98.6406 305.0718 0008930  42.8814 317.3085 14.71769982354779
TO-108
1 44881U 19093C   26141.85969586 -.00000232  00000-0 -20224-4 0  9990
2 44881  97.7532 214.7332 0013733 167.3742 192.7820 14.86466872347509
RS-44
1 44909U 19096E   26141.57978244  .00000020  00000-0  37434-4 0  9998
2 44909  82.5229 357.3892 0216970 206.3471 152.6467 12.79748401298947
SALSAT
1 46495U 20068K   26141.45465465  .00005535  00000-0  19705-3 0  9990
2 46495  97.8859 142.9019 0010937  45.0571 315.1553 15.29356447311277
CSS (TIANHE-1)
1 48274U 21035A   26141.86139679  .00009577  00000-0  11571-3 0  9995
2 48274  41.4679 122.0798 0007426 275.1763  84.8228 15.60726635289054
CUTE
1 49263U 21088D   26141.77701957  .00104987  00000-0  55473-3 0  9996
2 49263  97.4176 238.7459 0002517 261.7104  98.3878 15.80314088258369
TeikyoSat 4
1 49396U 21102B   26141.07393993  .00001072  00000-0  70775-4 0  9994
2 49396  97.3690 171.6111 0012889  33.7440 326.4607 15.09398905248634
Z-Sat
1 49399U 21102E   26141.83340809  .00002899  00000-0  14527-3 0  9999
2 49399  97.3339 177.9580 0016065 345.5214  14.5557 15.18038034249442
KOSEN 1
1 49402U 21102H   26141.85779153  .00005354  00000-0  20798-3 0  9990
2 49402  97.3205 184.5316 0012043 304.3232  55.6867 15.26424129250002
HO-113
1 50466U 21131B   26141.88332479  .00000115  00000-0  49326-4 0  9992
2 50466  98.4966 234.4170 0004419 160.9363 199.1992 14.41328020231328
SNUGLITE 2
1 52899U 22065F   26141.85999623  .00000631  00000-0  12885-3 0  9990
2 52899  98.2171 286.7433 0008793 105.1519 255.0657 14.64290315207144
UmKA 1 (RS40S)
1 57172U 23091G   26141.83835531  .00004599  00000-0  21342-3 0  9999
2 57172  97.5061 200.6414 0012270 204.4014 155.6641 15.20472652160005
CubeBel-2 (EU11S)
1 57175U 23091K   26141.87192961  .00008857  00000-0  32211-3 0  9997
2 57175  97.5060 204.8660 0009734 198.6703 161.4181 15.28450630160280
